Hourly Data Report for September 09, 2017

All times are specified in Local Standard Time (LST). Add 1 hour to adjust for Daylight Saving Time where and when it is observed.

BAKER LAKE A
NUNAVUT

64°17'56.000" N
96°04'40.000" W
18.60 m
2300503
71926
YBK

Download Data

Hourly Data (September 2017)
Hourly Data Report for September 9, 2017
Temp Definition
°C
Dew Point Temp Definition
°C
Rel Hum Definition
%
Wind Dir Definition
10's deg

Wind Spd Definition
km/h
Visibility Definition
km
Stn Press Definition
kPa
Hmdx Definition


Wind Chill Definition


Weather Definition


TIME
00:00 Legend Double Dagger 13.4 6.5 62 28 42 24.1 98.97     Cloudy
01:00 Legend Double Dagger 10.9 4.2 63 28 51 24.1 99.10     LegendNANA
02:00 Legend Double Dagger 7.2 4.2 81 29 36 24.1 99.27     Snow
03:00 Legend Double Dagger 2.9 -0.8 77 31 44 24.1 99.52     Mainly Clear
04:00 Legend Double Dagger 2.4 -1.1 78 32 50 24.1 99.76     LegendNANA
05:00 Legend Double Dagger 2.0 -1.1 80 33 35 40.2 99.96     LegendNANA
06:00 Legend Double Dagger 3.0 -1.2 73 33 44 40.2 100.15     Cloudy
07:00 Legend Double Dagger 3.5 -1.6 69 33 38 40.2 100.36     LegendNANA
08:00 Legend Double Dagger 3.9 -1.7 67 33 36 32.2 100.53     LegendNANA
09:00 Legend Double Dagger 4.9 -1.8 62 32 33 32.2 100.67     Mostly Cloudy
10:00 Legend Double Dagger 5.5 -2.4 57 34 37 32.2 100.84     LegendNANA
11:00 Legend Double Dagger 5.8 -3.3 52 33 32 32.2 100.93     LegendNANA
12:00 Legend Double Dagger 6.4 -4.1 47 34 31 32.2 101.03     Mainly Clear
13:00 Legend Double Dagger 6.5 -3.5 49 32 31 32.2 101.16     LegendNANA
14:00 Legend Double Dagger 6.0 -3.0 53 31 29 32.2 101.27     LegendNANA
15:00 Legend Double Dagger 6.8 -3.7 47 32 36 32.2 101.35     Mostly Cloudy
16:00 Legend Double Dagger 5.9 -3.4 51 33 33 32.2 101.43     LegendNANA
17:00 Legend Double Dagger 6.0 -3.6 50 32 27 32.2 101.52     LegendNANA
18:00 Legend Double Dagger 4.8 -4.0 53 34 22 32.2 101.60     Mainly Clear
19:00 Legend Double Dagger 2.2 -4.3 62 32 11 32.2 101.66     LegendNANA
20:00 Legend Double Dagger 1.2 -3.8 69 31 16 24.1 101.74     LegendNANA
21:00 Legend Double Dagger 0.7 -2.9 77 31 16 22.5 101.80     Clear
22:00 Legend Double Dagger -0.2 -3.4 79 31 15 24.1 101.86   -5 LegendNANA
23:00 Legend Double Dagger 0.2 -2.7 80 32 14 24.1 101.87     LegendNANA

Notes on Data Quality.

Legend

  • E = Estimated
  • M = Missing
  • NA = Not Available
  • ‡ = Partner data that is not subject to review by the National Climate Archives
Date modified: